This demonstration page uses our WeatherBlox Daily Observations layout. Learn more.

Left ArrowRight Arrow

Hourly Observations for August 23, 2017

Temp ( °F °C ) Dew Point ( °F °C ) Humidity (%) Winds ( mph kmh ) Pressure ( in mb ) Visibility ( mi km ) Precip ( " mm )
12:51 am 00:51 Mostly Clear 80 26.7 53 11.7 39 39 NE 5 7 29.84 1010 10 16.0934 N/A
1:51 am 01:51 Clear 76 24.4 54 12.2 47 47 N N/A 29.84 1011 10 16.0934 N/A
2:51 am 02:51 Clear 75 23.9 53 11.7 46 46 N N/A 29.85 1011 10 16.0934 N/A
3:51 am 03:51 Clear 74 23.3 54 12.2 50 50 NNW 3 6 29.84 1011 10 16.0934 N/A
4:51 am 04:51 Clear 74 23.3 54 12.2 50 50 SE 7 11 29.85 1011 10 16.0934 N/A
5:51 am 05:51 Sunny 72 22.2 54 12.2 53 53 N N/A 29.87 1011 10 16.0934 N/A
6:51 am 06:51 Sunny 74 23.3 56 13.3 54 54 N N/A 29.89 1012 10 16.0934 N/A
7:51 am 07:51 Sunny 83 28.3 56 13.3 40 40 N N/A 29.9 1013 10 16.0934 N/A
8:51 am 08:51 Sunny 87 30.6 53 11.7 31 31 SE 6 9 29.9 1012 10 16.0934 N/A
9:51 am 09:51 Sunny 91 32.8 53 11.7 27 27 SSE 7 11 29.89 1012 10 16.0934 N/A
10:51 am 10:51 Sunny 93 33.9 53 11.7 26 26 VRB 5 7 29.87 1012 10 16.0934 N/A
11:51 am 11:51 Sunny 94 34.4 52 11.1 24 24 N N/A 29.83 1010 10 16.0934 N/A
12:51 pm 12:51 Sunny 97 36.1 52 11.1 22 22 VRB 6 9 29.78 1009 10 16.0934 N/A
1:51 pm 13:51 Sunny 91 32.8 55 12.8 30 30 W 14 22 29.77 1008 10 16.0934 N/A
2:41 pm 14:41 Sunny with Nearby Thunderstorms 90 32.2 53 11.7 28 28 WNW 6 9 29.71 1006 10 16.0934 N/A
2:51 pm 14:51 Sunny with Nearby Thunderstorms 88 31.1 55 12.8 33 33 NW 6 9 29.78 1008 10 16.0934 N/A
3:41 pm 15:41 Mostly Cloudy with Light Rain 83 28.3 64 17.8 53 53 N 12 19 29.74 1007 10 16.0934 N/A
3:51 pm 15:51 Mostly Cloudy with Light Rain 81 27.2 64 17.8 57 57 N 10 17 29.8 1009 10 16.0934 N/A
4:22 pm 16:22 Mostly Cloudy with Nearby Thunderstorms 81 27 59 15 48 48 WNW 21 33 29.74 1007 10 16.0934 N/A
4:37 pm 16:37 Mostly Cloudy with Light Rain 78 25.6 61 16.1 56 56 WNW 20 31 29.77 1008 10 16.0934 N/A
4:51 pm 16:51 Mostly Cloudy 79 26.1 61 16.1 54 54 WNW 13 20 29.78 1008 10 16.0934 N/A
5:51 pm 17:51 Sunny 83 28.3 54 12.2 37 37 NW 16 26 29.83 1010 10 16.0934 N/A
6:38 pm 18:38 Cloudy with Nearby Thunderstorms 81 27 55 13 42 42 NNW 13 20 29.83 1010 10 16.0934 N/A
6:51 pm 18:51 Mostly Cloudy 79 26.1 56 13.3 45 45 N 8 13 29.89 1012 10 16.0934 N/A
7:51 pm 19:51 Cloudy with Light Rain 71 21.7 63 17.2 76 76 E 14 22 29.96 1015 10 16.0934 0.03 0.762
8:51 pm 20:51 Mostly Cloudy 73 22.8 60 15.6 64 64 ESE 12 19 29.96 1015 10 16.0934 N/A
9:51 pm 21:51 Clear 72 22.2 63 17.2 73 73 N N/A 29.96 1015 10 16.0934 N/A
10:51 pm 22:51 Cloudy 72 22.2 62 16.7 71 71 SSE 10 17 29.96 1015 10 16.0934 N/A
11:51 pm 23:51 Mostly Clear 72 22.2 61 16.1 68 68 SE 12 19 29.94 1014 10 16.0934 N/A

Powered by AerisWeather